Location: ???????
(56.2167°N, 38.0500°E)
Time: 03:31:24
(UTC+00:00)

Cosmos 2237 Rocket - Pass Details

Date: 19 May 2025
Orbit: 834 x 849 km, 71.0° (Epoch: 15 June)

Event Time Altitude Azimuth Distance (km) Brightness Sun altitude
Rises 23:41:54 0° 324° (NW) 3,402 5.6 -8.5°
Reaches altitude 10° 23:44:24 10° 319° (NW) 2,465 4.8 -8.3°
Maximum altitude 23:49:48 48° 246° (WSW) 1,095 2.5 -7.9°
Drops below altitude 10° 23:55:11 10° 174° (S) 2,460 4.2 -7.4°
Sets 23:57:42 0° 169° (S) 3,393 4.9 -7.2°
